{"data":{"norad_id":61624,"intl_designator":"2024-191D","name":"STARLINK-32398","alt_names":[],"object_type":"PAYLOAD","status":"ACTIVE","operator":null,"country":"US","launch_date":"2024-10-23","launch_site_code":"AFETR","launch_vehicle":null,"mission":null,"orbit_class":"UNKNOWN","rcs_meters":null,"size_class":null,"mass_kg":null,"dimensions":null,"purposes":["comms"],"wikipedia_slug":null,"has_3d_model":false,"image_url":null,"decayed_at":null,"tle_current":{"epoch":"2026-09-20T23:35:32.590176Z","epoch_age_seconds":150347,"freshness":"FRESH","line1":"1 61624U 24191D   26263.98301609  .00000343  00000+0  21994-4 0  9999","line2":"2 61624  43.0015 131.6175 0001276 265.5522  94.5184 15.27580732107404","mean_motion":15.27580732,"eccentricity":0.0001276,"inclination_deg":43.0015,"raan_deg":131.6175,"arg_perigee_deg":265.5522,"mean_anomaly_deg":94.5184,"bstar":2.1994e-5,"rev_number":10740,"period_min":94.266703542055,"perigee_km":482.17141710302,"apogee_km":483.92239123536,"semimajor_km":6861.1839041692,"source":"CELESTRAK","updated_at":"2026-09-22T09:00:49.395184Z"}}}